Flag for U.S.A. Weather past 2 weeks in Baltimore, Maryland, U.S.A.

Now
41 °F

Partly sunny.


Feels Like: 41 °F
Forecast: 37 / 62 °F
Wind: No wind

Location: Baltimore-Washington International Airport

Current Time: Mar 31, 2015 at 9:11:36 AM

Latest Report: Mar 31, 2015 at 7:54 AM


Visibility: 10 mi

Pressure: 29.93 "Hg

Humidity: 55%

Dew point: 26 °F

Location of BaltimoreLocation

Historic Weather in Baltimore — Graph

°F

Baltimore temperature yesterday

Maximum temperature yesterday: 61 °F (at 2:54 PM)
Minimum temperature yesterday: 37 °F (at 2:54 AM)
Average temperature yesterday: 48 °F

Past Weeks' High & Low Weather Summary

 TemperatureHumidityPressure
High74 °F (Mar 26, 4:54 PM)97% (Mar 20, 6:54 PM)30.41 "Hg (Mar 20, 6:54 PM)
Low22 °F (Mar 29, 6:54 AM)19% (Mar 18, 2:54 PM)29.57 "Hg (Mar 26, 6:54 PM)
Average42 °F53%30.07 "Hg
* Reported Mar 16 7:54 AM — Mar 31 7:54 AM, Baltimore, Weather by CustomWeather, © 2015

Note: Actual official high and low records may vary slightly from our data, if they occured in-between our weather recording intervals... More about our weather records

Advertising

Baltimore weather history for previous 24 hours

 ConditionsComfort  
Time TempWeatherWind HumidityBarometerVisibility
7:54 AM
Tue, Mar 31
41 °FPartly sunny.No wind55%29.93 "Hg10 mi
6:54 AM40 °FPartly cloudy.No wind55%29.91 "Hg10 mi
5:54 AM39 °FPassing clouds.No wind55%29.91 "Hg10 mi
4:54 AM44 °FPassing clouds.3 mph43%29.90 "Hg10 mi
3:54 AM44 °FPassing clouds.6 mph43%29.90 "Hg10 mi
2:54 AM45 °FPassing clouds.5 mph40%29.90 "Hg10 mi
1:54 AM47 °FPassing clouds.6 mph37%29.92 "Hg10 mi
12:54 AM47 °FPassing clouds.6 mph36%29.92 "Hg10 mi
11:54 PM
Mon, Mar 30
47 °FPassing clouds.5 mph36%29.93 "Hg10 mi
10:54 PM45 °FPassing clouds.5 mph38%29.93 "Hg10 mi
9:54 PM49 °FPassing clouds.7 mph35%29.94 "Hg10 mi
8:54 PM52 °FPassing clouds.9 mph30%29.93 "Hg10 mi
7:54 PM54 °FPassing clouds.9 mph27%29.89 "Hg10 mi
6:54 PM57 °FPassing clouds.13 mph25%29.85 "Hg10 mi
5:54 PM59 °FScattered clouds.15 mph23%29.84 "Hg10 mi
4:54 PM61 °FScattered clouds.18 mph25%29.83 "Hg10 mi
3:54 PM61 °FScattered clouds.15 mph26%29.83 "Hg10 mi
2:54 PM61 °FScattered clouds.17 mph27%29.83 "Hg10 mi
1:54 PM58 °FScattered clouds.12 mph33%29.85 "Hg10 mi
12:54 PM56 °FBroken clouds.17 mph36%29.87 "Hg10 mi
11:54 AM51 °FBroken clouds.12 mph36%29.88 "Hg10 mi
10:54 AM49 °FMostly cloudy.10 mph36%29.90 "Hg10 mi
9:54 AM46 °FBroken clouds.10 mph40%29.89 "Hg10 mi
Weather by CustomWeather, © 2015

See weather overviewHow to use our weather pages